Lapse_Rate
5.8 5.7 5.5 5.3 5.2 5.1 5.0 4.9 4.7 4.6 4.4 4.2 4.1 4.0 3.8 3.6 3.7 4.0 4.1 4.0 4.4 5.5
5.6 5.6 5.5 5.4 5.3 5.1 5.0 4.7 4.6 4.3 4.2 4.0 3.6 3.4 3.5 3.6 4.0 4.1 4.4 5.3 5.7 6.1
5.9 5.7 5.6 5.3 5.1 4.8 4.6 4.3 4.1 3.9 3.7 3.6 3.6 3.7 3.9 4.0 4.4 4.7 5.5 5.8 6.3 7.3
5.8 5.6 5.4 5.0 4.7 4.5 4.3 4.1 4.0 4.0 3.9 3.9 4.1 4.1 4.3 4.7 5.2 5.8 6.0 6.3 6.5 6.9
5.7 5.5 5.1 4.8 4.6 4.4 4.3 4.2 4.1 4.1 4.2 4.3 4.4 4.5 5.2 5.6 6.2 6.5 6.3 6.5 6.8 6.9
5.4 5.0 4.9 4.6 4.5 4.5 4.4 4.3 4.3 4.3 4.5 4.7 5.0 5.6 6.1 6.6 6.7 6.7 6.6 6.7 6.8 6.9
5.2 5.1 4.9 4.8 4.7 4.5 4.5 4.4 4.4 4.5 4.8 5.3 6.1 6.5 6.8 6.9 6.8 6.7 6.6 6.8 6.8 6.8
5.3 5.1 5.0 4.8 4.7 4.8 4.6 4.6 4.6 4.8 5.4 6.2 6.6 6.8 7.1 7.0 6.7 6.6 6.7 6.9 7.0 6.9
5.3 5.1 4.8 4.7 4.9 4.8 4.7 4.8 4.8 5.4 6.0 6.5 6.6 6.9 7.1 6.9 6.8 6.8 6.9 6.9 6.8 6.7
5.1 4.9 4.9 5.0 4.9 4.8 4.9 5.1 5.3 6.0 6.4 6.6 6.6 7.0 7.0 7.0 7.0 6.9 6.8 6.8 6.7 6.7
5.2 5.2 5.1 4.9 4.9 5.2 5.2 5.6 6.0 6.4 6.6 6.7 6.9 7.0 7.0 7.1 7.1 7.0 6.9 6.9 6.7 6.6
5.5 5.2 4.9 5.0 5.3 5.4 5.7 6.0 6.3 6.7 6.7 6.8 7.1 7.1 7.1 7.2 7.2 7.1 7.1 6.8 6.5 6.5
5.3 5.0 5.0 5.3 5.5 5.9 6.2 6.2 6.6 6.7 6.8 7.1 7.2 7.1 7.1 7.2 7.2 7.2 7.0 6.8 6.5 6.5
5.0 5.1 5.3 5.4 5.8 6.2 6.3 6.3 6.8 6.8 6.9 7.2 7.2 7.1 7.2 7.3 7.2 7.1 6.9 6.6 6.4 6.6
Wind_Speed
3 2 3 4 4 4 5 6 10 9 10 9 7 6 5 5 4 5 7 8 7 5
3 5 5 7 5 5 7 8 10 12 11 10 8 7 4 5 7 7 10 7 6 5
4 4 3 3 6 7 8 11 11 12 11 10 8 6 7 7 6 9 7 5 6 4
2 3 4 4 6 6 9 11 10 11 10 9 5 6 5 5 7 8 7 4 4 6
3 4 4 5 6 8 8 12 12 10 6 4 5 4 4 5 6 6 5 5 6 9
2 2 4 5 6 8 10 11 13 7 6 4 8 8 5 5 2 3 4 6 9 11
1 2 4 5 7 10 11 11 10 8 7 6 5 5 4 1 1 3 6 8 10 11
1 3 4 7 8 10 10 10 10 6 4 5 2 1 1 2 4 7 9 9 10 10
2 4 6 8 9 9 8 9 9 4 1 2 3 6 8 6 5 7 8 10 11 11
3 6 7 8 9 8 8 7 3 3 1 2 2 6 6 6 5 7 9 10 10 10
4 6 7 8 9 7 6 6 3 1 1 1 3 4 5 6 6 7 9 10 10 10
5 5 6 8 8 8 7 5 3 3 2 1 1 3 5 7 6 8 10 9 10 10
5 4 6 8 8 5 4 6 3 3 2 1 2 2 5 6 5 8 8 10 10 10
4 4 5 6 8 6 5 3 2 3 2 3 3 3 4 7 7 7 8 8 8 8
Wind_Direction
135 229 275 308 309 293 297 297 304 310 300 291 274 267 260 273 289 310 297 286 287 290
13 340 319 314 308 312 317 319 314 309 301 291 271 263 270 290 294 294 287 288 294 296
343 311 304 316 331 335 329 327 317 311 301 290 280 271 288 281 287 294 285 285 291 296
331 20 16 5 1 353 330 327 320 315 306 299 294 312 296 297 317 292 296 301 299 295
42 39 28 7 348 342 327 321 322 316 303 298 318 285 312 288 289 299 296 316 306 299
53 23 2 346 334 330 329 327 322 296 272 299 306 299 275 294 288 304 310 311 303 302
336 347 339 330 332 335 331 325 323 300 285 307 292 288 298 255 304 313 309 310 309 306
289 327 333 336 332 333 330 329 323 311 304 302 295 30 34 11 339 327 321 314 309 307
309 317 336 337 329 324 329 344 348 342 72 55 51 63 61 15 343 333 323 320 317 317
310 332 332 322 320 326 333 322 1 331 5 83 67 63 49 27 344 330 327 325 321 320
327 314 317 322 325 324 336 321 315 242 158 132 75 39 25 7 338 332 332 327 319 318
309 307 325 330 329 321 313 293 286 222 199 218 22 28 4 340 334 333 329 321 321 320
295 300 329 330 323 310 303 311 203 204 214 167 273 334 336 336 326 323 323 325 324 322
291 300 320 322 313 300 300 266 227 229 240 247 253 271 311 328 324 319 320 323 325 329